Time,TemperatureF,DewpointF,PressureIn,WindDirection,WindDirectionDegrees,WindSpeedMPH,WindSpeedGustMPH,Humidity,HourlyPrecipIn,Conditions,Clouds,dailyrainin,SoftwareType,DateUTC
2013-06-29 00:04:00,71.3,70.0,29.65,East,80,0.0,-999.0,95,-99.99,,,0.02,weatherlink.com 1.10,2013-06-29 04:04:00,
2013-06-29 00:30:00,71.2,70.0,29.65,East,80,0.0,-999.0,95,-99.99,,,0.02,weatherlink.com 1.10,2013-06-29 04:30:00,
2013-06-29 00:49:00,70.6,70.0,29.64,ENE,78,0.0,-999.0,96,-99.99,,,0.56,weatherlink.com 1.10,2013-06-29 04:49:00,
2013-06-29 01:04:00,70.2,69.0,29.64,ENE,78,0.0,-999.0,96,-99.99,,,0.59,weatherlink.com 1.10,2013-06-29 05:04:00,
2013-06-29 01:30:00,70.2,69.0,29.64,ENE,78,0.0,-999.0,96,-99.99,,,0.59,weatherlink.com 1.10,2013-06-29 05:30:00,
2013-06-29 01:34:00,69.9,69.0,29.63,ENE,78,0.0,-999.0,96,-99.99,,,0.62,weatherlink.com 1.10,2013-06-29 05:34:00,
2013-06-29 01:49:00,69.8,69.0,29.63,ENE,78,0.0,-999.0,96,-99.99,,,0.63,weatherlink.com 1.10,2013-06-29 05:49:00,
2013-06-29 02:04:00,69.8,69.0,29.62,ENE,78,0.0,-999.0,96,-99.99,,,0.63,weatherlink.com 1.10,2013-06-29 06:04:00,
2013-06-29 02:30:00,69.8,69.0,29.62,ENE,78,0.0,-999.0,96,-99.99,,,0.63,weatherlink.com 1.10,2013-06-29 06:30:00,
2013-06-29 02:58:00,69.9,69.0,29.61,ENE,78,0.0,-999.0,96,-99.99,,,0.63,weatherlink.com 1.10,2013-06-29 06:58:00,
2013-06-29 03:04:00,69.8,69.0,29.60,ENE,78,0.0,-999.0,96,-99.99,,,0.63,weatherlink.com 1.10,2013-06-29 07:04:00,
2013-06-29 03:30:00,69.9,69.0,29.60,ENE,78,0.0,-999.0,96,-99.99,,,0.63,weatherlink.com 1.10,2013-06-29 07:30:00,
2013-06-29 03:48:00,69.9,69.0,29.61,ENE,78,0.0,-999.0,97,-99.99,,,0.63,weatherlink.com 1.10,2013-06-29 07:48:00,
2013-06-29 04:03:00,69.9,69.0,29.61,ENE,78,0.0,-999.0,97,-99.99,,,0.63,weatherlink.com 1.10,2013-06-29 08:03:00,
2013-06-29 04:30:00,69.8,69.0,29.61,ENE,78,0.0,-999.0,97,-99.99,,,0.63,weatherlink.com 1.10,2013-06-29 08:30:00,
2013-06-29 04:49:00,69.8,69.0,29.61,ENE,78,0.0,-999.0,97,-99.99,,,0.63,weatherlink.com 1.10,2013-06-29 08:49:00,
2013-06-29 05:04:00,70.0,69.0,29.62,ENE,78,0.0,-999.0,97,-99.99,,,0.63,weatherlink.com 1.10,2013-06-29 09:04:00,
2013-06-29 05:30:00,70.0,69.0,29.62,ENE,78,0.0,-999.0,97,-99.99,,,0.63,weatherlink.com 1.10,2013-06-29 09:30:00,
2013-06-29 05:49:00,70.1,69.0,29.63,ENE,78,0.0,-999.0,97,-99.99,,,0.63,weatherlink.com 1.10,2013-06-29 09:49:00,
2013-06-29 06:04:00,70.2,69.0,29.64,ENE,78,0.0,-999.0,97,-99.99,,,0.63,weatherlink.com 1.10,2013-06-29 10:04:00,
2013-06-29 06:30:00,70.2,69.0,29.64,ENE,78,0.0,-999.0,97,-99.99,,,0.63,weatherlink.com 1.10,2013-06-29 10:30:00,
2013-06-29 06:49:00,70.0,69.0,29.65,ENE,78,0.0,-999.0,97,-99.99,,,0.63,weatherlink.com 1.10,2013-06-29 10:49:00,
2013-06-29 07:04:00,70.1,69.0,29.65,ENE,78,0.0,-999.0,97,-99.99,,,0.63,weatherlink.com 1.10,2013-06-29 11:04:00,
2013-06-29 07:30:00,70.1,69.0,29.65,ENE,78,0.0,-999.0,97,-99.99,,,0.63,weatherlink.com 1.10,2013-06-29 11:30:00,
2013-06-29 07:49:00,70.1,69.0,29.66,ENE,78,0.0,-999.0,97,-99.99,,,0.63,weatherlink.com 1.10,2013-06-29 11:49:00,
2013-06-29 08:04:00,70.4,70.0,29.66,ENE,78,0.0,-999.0,97,-99.99,,,0.63,weatherlink.com 1.10,2013-06-29 12:04:00,
2013-06-29 08:29:00,70.4,70.0,29.66,ENE,78,0.0,-999.0,97,-99.99,,,0.63,weatherlink.com 1.10,2013-06-29 12:29:00,
2013-06-29 08:48:00,70.9,70.0,29.67,ENE,78,0.0,-999.0,97,-99.99,,,0.64,weatherlink.com 1.10,2013-06-29 12:48:00,
2013-06-29 09:03:00,71.2,70.0,29.66,ENE,78,0.0,-999.0,97,-99.99,,,0.64,weatherlink.com 1.10,2013-06-29 13:03:00,
2013-06-29 09:29:00,71.2,70.0,29.67,ENE,78,0.0,-999.0,97,-99.99,,,0.64,weatherlink.com 1.10,2013-06-29 13:29:00,
2013-06-29 09:48:00,71.7,71.0,29.68,ENE,78,0.0,-999.0,97,-99.99,,,0.64,weatherlink.com 1.10,2013-06-29 13:48:00,
2013-06-29 10:03:00,71.8,71.0,29.67,ENE,78,0.0,-999.0,97,-99.99,,,0.64,weatherlink.com 1.10,2013-06-29 14:03:00,
2013-06-29 10:29:00,71.8,71.0,29.67,ENE,78,0.0,-999.0,97,-99.99,,,0.64,weatherlink.com 1.10,2013-06-29 14:29:00,
2013-06-29 10:48:00,72.5,72.0,29.67,ENE,78,0.0,-999.0,97,-99.99,,,0.64,weatherlink.com 1.10,2013-06-29 14:48:00,
2013-06-29 11:03:00,73.0,72.0,29.67,ENE,78,0.0,-999.0,97,-99.99,,,0.64,weatherlink.com 1.10,2013-06-29 15:03:00,
2013-06-29 11:29:00,73.0,72.0,29.67,ENE,78,0.0,-999.0,97,-99.99,,,0.64,weatherlink.com 1.10,2013-06-29 15:29:00,
2013-06-29 11:48:00,74.1,73.0,29.68,ENE,78,0.0,-999.0,96,-99.99,,,0.64,weatherlink.com 1.10,2013-06-29 15:48:00,
2013-06-29 12:03:00,74.7,73.0,29.68,ENE,78,0.0,-999.0,95,-99.99,,,0.64,weatherlink.com 1.10,2013-06-29 16:03:00,
2013-06-29 12:29:00,74.8,73.0,29.68,ENE,78,0.0,-999.0,95,-99.99,,,0.64,weatherlink.com 1.10,2013-06-29 16:29:00,
2013-06-29 12:48:00,76.0,73.0,29.67,ENE,78,0.0,-999.0,91,-99.99,,,0.64,weatherlink.com 1.10,2013-06-29 16:48:00,
2013-06-29 13:03:00,76.6,74.0,29.67,ENE,78,0.0,-999.0,92,-99.99,,,0.64,weatherlink.com 1.10,2013-06-29 17:03:00,
2013-06-29 13:29:00,76.6,74.0,29.67,ENE,78,0.0,-999.0,92,-99.99,,,0.64,weatherlink.com 1.10,2013-06-29 17:29:00,
2013-06-29 13:48:00,77.9,74.0,29.67,ENE,78,0.0,-999.0,88,-99.99,,,0.64,weatherlink.com 1.10,2013-06-29 17:48:00,
2013-06-29 14:03:00,78.1,74.0,29.67,ENE,78,0.0,-999.0,87,-99.99,,,0.64,weatherlink.com 1.10,2013-06-29 18:03:00,
2013-06-29 14:29:00,78.2,74.0,29.67,ENE,78,0.0,-999.0,87,-99.99,,,0.64,weatherlink.com 1.10,2013-06-29 18:29:00,
2013-06-29 14:48:00,78.8,74.0,29.67,ENE,78,0.0,-999.0,84,-99.99,,,0.64,weatherlink.com 1.10,2013-06-29 18:48:00,
2013-06-29 15:03:00,79.2,74.0,29.66,ENE,78,0.0,-999.0,84,-99.99,,,0.64,weatherlink.com 1.10,2013-06-29 19:03:00,
2013-06-29 15:29:00,79.2,74.0,29.66,ENE,78,1.0,-999.0,84,-99.99,,,0.64,weatherlink.com 1.10,2013-06-29 19:29:00,
2013-06-29 15:48:00,80.4,73.0,29.66,ENE,78,0.0,-999.0,77,-99.99,,,0.64,weatherlink.com 1.10,2013-06-29 19:48:00,
2013-06-29 16:03:00,80.5,73.0,29.66,ENE,78,0.0,-999.0,78,-99.99,,,0.64,weatherlink.com 1.10,2013-06-29 20:03:00,
2013-06-29 16:29:00,80.5,73.0,29.66,ENE,78,0.0,-999.0,78,-99.99,,,0.64,weatherlink.com 1.10,2013-06-29 20:29:00,
2013-06-29 16:48:00,80.9,73.0,29.66,ENE,78,0.0,-999.0,78,-99.99,,,0.64,weatherlink.com 1.10,2013-06-29 20:48:00,
2013-06-29 17:03:00,81.2,74.0,29.65,ENE,78,0.0,-999.0,79,-99.99,,,0.64,weatherlink.com 1.10,2013-06-29 21:03:00,
2013-06-29 17:29:00,81.3,73.0,29.65,ENE,78,0.0,-999.0,77,-99.99,,,0.64,weatherlink.com 1.10,2013-06-29 21:29:00,
2013-06-29 17:48:00,81.9,74.0,29.66,ENE,78,0.0,-999.0,77,-99.99,,,0.64,weatherlink.com 1.10,2013-06-29 21:48:00,
2013-06-29 18:03:00,81.8,74.0,29.66,ENE,78,0.0,-999.0,78,-99.99,,,0.64,weatherlink.com 1.10,2013-06-29 22:03:00,
2013-06-29 18:29:00,81.8,75.0,29.66,ENE,78,0.0,-999.0,79,-99.99,,,0.64,weatherlink.com 1.10,2013-06-29 22:29:00,
2013-06-29 18:48:00,82.1,74.0,29.66,ENE,78,0.0,-999.0,77,-99.99,,,0.64,weatherlink.com 1.10,2013-06-29 22:48:00,
2013-06-29 19:03:00,82.0,74.0,29.66,ENE,78,0.0,-999.0,77,-99.99,,,0.64,weatherlink.com 1.10,2013-06-29 23:03:00,
2013-06-29 19:29:00,82.0,75.0,29.66,ENE,78,0.0,-999.0,78,-99.99,,,0.64,weatherlink.com 1.10,2013-06-29 23:29:00,
2013-06-29 19:48:00,80.6,74.0,29.67,ENE,78,0.0,-999.0,81,-99.99,,,0.64,weatherlink.com 1.10,2013-06-29 23:48:00,
2013-06-29 20:03:00,80.3,75.0,29.68,ENE,78,0.0,-999.0,83,-99.99,,,0.64,weatherlink.com 1.10,2013-06-30 00:03:00,
2013-06-29 20:29:00,80.3,75.0,29.68,ENE,78,0.0,-999.0,83,-99.99,,,0.64,weatherlink.com 1.10,2013-06-30 00:29:00,
2013-06-29 20:48:00,79.7,75.0,29.68,ENE,78,0.0,-999.0,84,-99.99,,,0.64,weatherlink.com 1.10,2013-06-30 00:48:00,
2013-06-29 21:03:00,79.3,75.0,29.68,ENE,78,0.0,-999.0,86,-99.99,,,0.64,weatherlink.com 1.10,2013-06-30 01:03:00,
2013-06-29 21:29:00,79.3,75.0,29.68,ENE,78,0.0,-999.0,86,-99.99,,,0.64,weatherlink.com 1.10,2013-06-30 01:29:00,
2013-06-29 21:48:00,77.9,74.0,29.70,ENE,78,0.0,-999.0,88,-99.99,,,0.64,weatherlink.com 1.10,2013-06-30 01:48:00,
2013-06-29 22:03:00,77.8,74.0,29.70,ENE,78,0.0,-999.0,88,-99.99,,,0.64,weatherlink.com 1.10,2013-06-30 02:03:00,
2013-06-29 22:29:00,77.8,74.0,29.70,ENE,78,0.0,-999.0,88,-99.99,,,0.64,weatherlink.com 1.10,2013-06-30 02:29:00,
2013-06-29 22:48:00,77.5,74.0,29.71,ENE,78,0.0,-999.0,89,-99.99,,,0.64,weatherlink.com 1.10,2013-06-30 02:48:00,
2013-06-29 23:03:00,77.4,74.0,29.72,ENE,78,0.0,-999.0,89,-99.99,,,0.64,weatherlink.com 1.10,2013-06-30 03:03:00,
2013-06-29 23:29:00,77.3,74.0,29.72,ENE,78,0.0,-999.0,89,-99.99,,,0.64,weatherlink.com 1.10,2013-06-30 03:29:00,
2013-06-29 23:48:00,77.1,74.0,29.72,ENE,78,0.0,-999.0,90,-99.99,,,0.64,weatherlink.com 1.10,2013-06-30 03:48:00,